| time (UTC) | temp F | wind direction | speed knots | gust knots | rain 1hr in | rain 24hr in | rain mn in | humidity % | barometer mb |
| 20260508164911 | 70 | 182 | 0.9 | 3.5 | 0.00 | 0.80 | 0.00 | 47 | 1017.8 |
| 20260508164644 | 70 | 182 | 1.7 | 3.5 | 0.00 | 0.80 | 0.00 | 45 | 1018.0 |
| 20260508164142 | 70 | 182 | 1.7 | 4.3 | 0.00 | 0.80 | 0.00 | 47 | 1018.1 |
| 20260508163411 | 69 | 182 | 0.9 | 4.3 | 0.00 | 0.80 | 0.00 | 48 | 1018.0 |
| 20260508162912 | 71 | 182 | 0.0 | 2.6 | 0.00 | 0.80 | 0.00 | 48 | 1018.1 |
| 20260508162412 | 70 | 182 | 0.9 | 3.5 | 0.00 | 0.80 | 0.00 | 50 | 1018.2 |
| 20260508161911 | 70 | 182 | 0.9 | 3.5 | 0.00 | 0.80 | 0.00 | 48 | 1018.2 |
| 20260508161409 | 70 | 182 | 0.9 | 4.3 | 0.00 | 0.80 | 0.00 | 53 | 1018.2 |
| 20260508160909 | 70 | 182 | 0.9 | 4.3 | 0.00 | 0.80 | 0.00 | 53 | 1018.3 |
| 20260508160410 | 70 | 182 | 0.9 | 3.5 | 0.00 | 0.80 | 0.00 | 52 | 1018.4 |
| 20260508155910 | 70 | 182 | 0.9 | 5.2 | 0.00 | 0.80 | 0.00 | 53 | 1018.5 |
| 20260508155409 | 69 | 182 | 0.9 | 5.2 | 0.00 | 0.80 | 0.00 | 52 | 1018.5 |
| 20260508154908 | 70 | 181 | 0.9 | 3.5 | 0.00 | 0.80 | 0.00 | 53 | 1018.5 |
| 20260508154637 | 69 | 181 | 0.9 | 3.5 | 0.00 | 0.80 | 0.00 | 50 | 1018.6 |
| 20260508154136 | 70 | 181 | 0.9 | 3.5 | 0.00 | 0.80 | 0.00 | 50 | 1018.7 |
| 20260508153405 | 70 | 181 | 0.9 | 4.3 | 0.00 | 0.80 | 0.00 | 54 | 1018.5 |
| 20260508152904 | 70 | 181 | 0.9 | 4.3 | 0.00 | 0.80 | 0.00 | 52 | 1018.6 |
| 20260508152403 | 71 | 182 | 0.0 | 1.7 | 0.00 | 0.80 | 0.00 | 54 | 1018.7 |
| 20260508151901 | 70 | 181 | 0.0 | 1.7 | 0.00 | 0.80 | 0.00 | 56 | 1018.6 |
| 20260508151401 | 70 | 182 | 0.0 | 1.7 | 0.00 | 0.80 | 0.00 | 55 | 1018.5 |
| 20260508151133 | 70 | 182 | 0.0 | 1.7 | 0.00 | 0.80 | 0.00 | 56 | 1018.6 |
| 20260508150359 | 69 | 181 | 0.0 | 1.7 | 0.00 | 0.80 | 0.00 | 58 | 1018.5 |
| 20260508145858 | 68 | 181 | 0.9 | 5.2 | 0.00 | 0.80 | 0.00 | 61 | 1018.5 |
| 20260508145632 | 67 | 181 | 0.9 | 5.2 | 0.00 | 0.80 | 0.00 | 54 | 1018.6 |
| 20260508145129 | 68 | 181 | 0.0 | 0.9 | 0.00 | 0.80 | 0.00 | 60 | 1018.5 |
| 20260508144357 | 68 | 182 | 0.0 | 0.9 | 0.00 | 0.80 | 0.00 | 60 | 1018.5 |
| 20260508143857 | 68 | 182 | 0.0 | 0.9 | 0.00 | 0.80 | 0.00 | 63 | 1018.6 |
| 20260508143357 | 67 | 182 | 0.0 | 0.9 | 0.00 | 0.80 | 0.00 | 62 | 1018.6 |
| 20260508142857 | 66 | 182 | 0.0 | 2.6 | 0.00 | 0.81 | 0.00 | 63 | 1018.6 |
| 20260508142357 | 65 | 182 | 0.0 | 2.6 | 0.00 | 0.81 | 0.00 | 66 | 1018.6 |
| 20260508141857 | 65 | 182 | 0.0 | 1.7 | 0.00 | 0.81 | 0.00 | 69 | 1018.6 |
| 20260508141356 | 65 | 182 | 0.0 | 1.7 | 0.00 | 0.82 | 0.00 | 69 | 1018.7 |
| 20260508140855 | 64 | 181 | 0.0 | 1.7 | 0.00 | 0.82 | 0.00 | 71 | 1018.7 |
| 20260508140355 | 63 | 182 | 0.0 | 1.7 | 0.00 | 0.82 | 0.00 | 74 | 1018.8 |
| 20260508135855 | 63 | 181 | 0.0 | 1.7 | 0.00 | 0.82 | 0.00 | 73 | 1018.8 |
| 20260508135626 | 63 | 182 | 0.0 | 0.0 | 0.00 | 0.82 | 0.00 | 80 | 1018.7 |
| 20260508135126 | 62 | 181 | 0.0 | 1.7 | 0.00 | 0.82 | 0.00 | 81 | 1018.8 |
| 20260508134355 | 60 | 182 | 0.0 | 1.7 | 0.00 | 0.82 | 0.00 | 88 | 1018.6 |
| 20260508133855 | 59 | 181 | 0.0 | 0.9 | 0.00 | 0.83 | 0.00 | 93 | 1018.6 |
| 20260508133354 | 58 | 181 | 0.0 | 1.7 | 0.00 | 0.83 | 0.00 | 99 | 1018.6 |
| 20260508132854 | 57 | 182 | 0.0 | 1.7 | 0.00 | 0.83 | 0.00 | 100 | 1018.5 |
| 20260508132353 | 56 | 181 | 0.0 | 1.7 | 0.00 | 0.83 | 0.00 | 100 | 1018.5 |
| 20260508131853 | 56 | 181 | 0.0 | 1.7 | 0.00 | 0.83 | 0.00 | 100 | 1018.5 |
| 20260508131357 | 55 | 181 | 0.0 | 0.0 | 0.00 | 0.84 | 0.00 | 100 | 1018.6 |
| 20260508131353 | 56 | 181 | 0.0 | 0.9 | 0.00 | 0.84 | 0.00 | 100 | 1018.5 |
| 20260508130352 | 54 | 181 | 0.0 | 0.9 | 0.00 | 0.84 | 0.00 | 100 | 1018.5 |
| 20260508130124 | 53 | 181 | 0.0 | 0.9 | 0.00 | 0.84 | 0.00 | 100 | 1018.5 |
| 20260508125350 | 53 | 181 | 0.0 | 0.0 | 0.00 | 0.84 | 0.00 | 100 | 1018.5 |
| 20260508124851 | 54 | 181 | 0.0 | 0.0 | 0.00 | 0.84 | 0.00 | 100 | 1018.4 |
| 20260508124351 | 53 | 181 | 0.0 | 0.0 | 0.00 | 0.84 | 0.00 | 100 | 1018.3 |
| 20260508123850 | 53 | 181 | 0.0 | 0.0 | 0.00 | 0.84 | 0.00 | 100 | 1018.2 |
| 20260508123350 | 53 | 181 | 0.0 | 0.0 | 0.00 | 0.84 | 0.00 | 100 | 1018.1 |
| 20260508122850 | 53 | 182 | 0.0 | 0.0 | 0.00 | 0.84 | 0.00 | 100 | 1018.1 |
| 20260508122350 | 53 | 181 | 0.0 | 0.0 | 0.00 | 0.84 | 0.00 | 100 | 1018.0 |
| 20260508121850 | 53 | 181 | 0.0 | 0.0 | 0.00 | 0.84 | 0.00 | 100 | 1018.0 |
| 20260508121350 | 53 | 181 | 0.0 | 0.0 | 0.00 | 0.84 | 0.00 | 100 | 1018.0 |
| 20260508121122 | 53 | 181 | 0.0 | 0.0 | 0.00 | 0.84 | 0.00 | 100 | 1017.9 |
| 20260508120348 | 52 | 181 | 0.0 | 0.0 | 0.00 | 0.84 | 0.00 | 100 | 1017.9 |
| 20260508115847 | 52 | 181 | 0.0 | 0.0 | 0.00 | 0.84 | 0.00 | 100 | 1017.8 |
| 20260508115348 | 52 | 181 | 0.0 | 0.0 | 0.00 | 0.84 | 0.00 | 100 | 1017.8 |
| 20260508115119 | 52 | 182 | 0.0 | 0.0 | 0.00 | 0.84 | 0.00 | 100 | 1017.8 |
| 20260508114348 | 51 | 181 | 0.0 | 0.0 | 0.00 | 0.84 | 0.00 | 100 | 1017.6 |
| 20260508113848 | 51 | 181 | 0.0 | 0.0 | 0.00 | 0.84 | 0.00 | 100 | 1017.5 |
| 20260508113349 | 51 | 182 | 0.0 | 0.0 | 0.00 | 0.84 | 0.00 | 100 | 1017.5 |
| 20260508112849 | 50 | 181 | 0.0 | 0.0 | 0.00 | 0.84 | 0.00 | 100 | 1017.4 |
| 20260508112349 | 50 | 181 | 0.0 | 0.0 | 0.00 | 0.84 | 0.00 | 100 | 1017.2 |
| 20260508111849 | 0 | 0.0 | 0.0 | 0.00 | 0.84 | 0.00 | 1017.1 | ||
| 20260508111348 | 0 | 0.0 | 0.0 | 0.00 | 0.84 | 0.00 | 1017.2 | ||
| 20260508110849 | 0 | 0.0 | 0.0 | 0.00 | 0.84 | 0.00 | 1017.0 | ||
| 20260508110349 | 0 | 0.0 | 0.0 | 0.00 | 0.84 | 0.00 | 1016.8 | ||
| 20260508105847 | 0 | 0.0 | 0.0 | 0.00 | 0.84 | 0.00 | 1016.9 | ||
| 20260508105345 | 0 | 0.0 | 0.0 | 0.00 | 0.84 | 0.00 | 1016.7 | ||
| 20260508104843 | 0 | 0.0 | 0.0 | 0.00 | 0.84 | 0.00 | 1016.8 | ||
| 20260508104247 | 0 | 0.0 | 0.0 | 0.00 | 0.84 | 0.00 | 1016.6 | ||
| 20260508103748 | 0 | 0.0 | 0.0 | 0.00 | 0.84 | 0.00 | 1016.4 | ||
| 20260508103244 | 0 | 0.0 | 0.0 | 0.00 | 0.84 | 0.00 | 1016.3 | ||
| 20260508102744 | 0 | 0.0 | 0.0 | 0.00 | 0.84 | 0.00 | 1016.1 | ||
| 20260508102238 | 0 | 0.0 | 0.0 | 0.00 | 0.84 | 0.00 | 1016.0 | ||
| 20260508101650 | 0 | 0.0 | 0.0 | 0.00 | 0.84 | 0.00 | 1016.1 | ||
| 20260508101145 | 0 | 0.0 | 0.0 | 0.00 | 0.84 | 0.00 | 1015.9 | ||
| 20260508100645 | 0 | 0.0 | 0.0 | 0.00 | 0.84 | 0.00 | 1015.9 | ||
| 20260508100143 | 0 | 0.0 | 0.0 | 0.00 | 0.84 | 0.00 | 1015.9 | ||
| 20260508095818 | 0 | 0.0 | 0.0 | 0.00 | 0.84 | 0.00 | 1015.9 | ||
| 20260508095048 | 0 | 0.0 | 0.0 | 0.00 | 0.84 | 0.00 | 1015.9 | ||
| 20260508094543 | 0 | 0.0 | 0.0 | 0.00 | 0.84 | 0.00 | 1016.0 | ||
| 20260508093951 | 0 | 0.0 | 0.0 | 0.00 | 0.84 | 0.00 | 1015.7 | ||
| 20260508093445 | 0 | 179 | 0.0 | 0.0 | 0.00 | 0.84 | 0.00 | 1015.7 | |
| 20260508092943 | 0 | 179 | 0.0 | 0.0 | 0.00 | 0.84 | 0.00 | 1015.7 | |
| 20260508092654 | 51 | 179 | 0.0 | 0.0 | 0.00 | 0.84 | 0.00 | 99 | 1015.8 |
| 20260508092529 | 51 | 179 | 0.0 | 0.0 | 0.00 | 0.84 | 0.00 | 99 | 1015.8 |
| 20260508091420 | 51 | 181 | 0.0 | 0.0 | 0.00 | 0.84 | 0.00 | 100 | 1015.7 |
| 20260508090920 | 51 | 181 | 0.0 | 0.0 | 0.00 | 0.84 | 0.00 | 100 | 1015.4 |
| 20260508090418 | 51 | 181 | 0.0 | 0.0 | 0.00 | 0.84 | 0.00 | 100 | 1015.6 |
| 20260508085918 | 51 | 181 | 0.0 | 0.0 | 0.00 | 0.85 | 0.00 | 100 | 1015.6 |
| 20260508085416 | 51 | 181 | 0.0 | 0.0 | 0.00 | 0.85 | 0.00 | 100 | 1015.6 |
| 20260508084919 | 51 | 181 | 0.0 | 0.0 | 0.00 | 0.86 | 0.00 | 99 | 1015.4 |
| 20260508084914 | 51 | 181 | 0.0 | 0.0 | 0.00 | 0.86 | 0.00 | 100 | 1015.6 |
| 20260508084520 | 51 | 181 | 0.0 | 0.0 | 0.00 | 0.87 | 0.00 | 99 | 1015.4 |
| 20260508083413 | 51 | 181 | 0.0 | 0.0 | 0.00 | 0.87 | 0.00 | 99 | 1015.3 |
| 20260508082911 | 51 | 181 | 0.0 | 0.0 | 0.00 | 0.87 | 0.00 | 99 | 1015.3 |
| 20260508082412 | 51 | 182 | 0.0 | 0.0 | 0.00 | 0.88 | 0.00 | 99 | 1015.3 |
| 20260508081911 | 51 | 181 | 0.0 | 0.0 | 0.00 | 0.88 | 0.00 | 99 | 1015.2 |
| 20260508081412 | 51 | 181 | 0.0 | 0.0 | 0.00 | 0.88 | 0.00 | 99 | 1015.3 |
| 20260508081142 | 51 | 181 | 0.0 | 0.0 | 0.00 | 0.89 | 0.00 | 99 | 1015.2 |
| 20260508080411 | 51 | 181 | 0.0 | 0.0 | 0.00 | 0.90 | 0.00 | 99 | 1015.1 |
| 20260508075913 | 51 | 182 | 0.0 | 0.0 | 0.00 | 0.90 | 0.00 | 99 | 1014.9 |
| 20260508075412 | 51 | 182 | 0.0 | 0.0 | 0.00 | 0.91 | 0.00 | 99 | 1015.0 |
| 20260508074912 | 51 | 181 | 0.0 | 0.0 | 0.00 | 0.92 | 0.00 | 99 | 1014.9 |
| 20260508074412 | 52 | 181 | 0.0 | 0.0 | 0.00 | 0.92 | 0.00 | 99 | 1014.9 |
| 20260508073912 | 52 | 182 | 0.0 | 0.0 | 0.00 | 0.93 | 0.00 | 99 | 1015.0 |
| 20260508073642 | 52 | 181 | 0.0 | 0.0 | 0.00 | 0.95 | 0.00 | 99 | 1014.9 |
| 20260508072912 | 52 | 181 | 0.0 | 0.0 | 0.00 | 0.96 | 0.00 | 99 | 1014.9 |
| 20260508072412 | 52 | 182 | 0.0 | 0.0 | 0.00 | 0.97 | 0.00 | 99 | 1014.8 |
| 20260508071913 | 52 | 181 | 0.0 | 0.0 | 0.00 | 0.98 | 0.00 | 99 | 1014.7 |
| 20260508071411 | 52 | 181 | 0.0 | 0.0 | 0.00 | 0.99 | 0.00 | 99 | 1014.6 |
| 20260508070911 | 52 | 181 | 0.0 | 0.0 | 0.00 | 1.01 | 0.00 | 99 | 1014.6 |
| 20260508070409 | 52 | 181 | 0.0 | 0.0 | 0.00 | 1.04 | 0.00 | 99 | 1014.7 |
| 20260508065909 | 53 | 181 | 0.0 | 0.0 | 0.00 | 1.12 | 0.00 | 99 | 1014.5 |
| 20260508065409 | 53 | 181 | 0.0 | 0.0 | 0.00 | 1.14 | 0.00 | 99 | 1014.6 |
| 20260508065141 | 53 | 181 | 0.0 | 0.0 | 0.00 | 1.17 | 0.00 | 99 | 1014.6 |
| 20260508064406 | 53 | 181 | 0.0 | 0.0 | 0.00 | 1.20 | 0.00 | 99 | 1014.5 |
| 20260508064138 | 53 | 181 | 0.0 | 0.0 | 0.00 | 1.23 | 0.00 | 99 | 1014.6 |
| 20260508063404 | 53 | 181 | 0.0 | 0.0 | 0.00 | 1.26 | 0.00 | 99 | 1014.6 |
| 20260508063134 | 53 | 181 | 0.0 | 0.0 | 0.00 | 1.30 | 0.00 | 99 | 1014.7 |
| 20260508062402 | 53 | 182 | 0.0 | 0.0 | 0.00 | 1.35 | 0.00 | 99 | 1014.8 |
| 20260508061901 | 54 | 182 | 0.0 | 0.0 | 0.00 | 1.40 | 0.00 | 99 | 1014.9 |
| 20260508061630 | 54 | 181 | 0.0 | 0.0 | 0.00 | 1.49 | 0.00 | 99 | 1014.9 |
| 20260508060857 | 54 | 181 | 0.0 | 0.0 | 0.00 | 1.57 | 0.00 | 99 | 1014.8 |
| 20260508060626 | 54 | 181 | 0.0 | 0.0 | 0.00 | 1.66 | 0.00 | 99 | 1014.9 |
| 20260508055855 | 54 | 181 | 0.0 | 0.0 | 0.00 | 1.74 | 0.00 | 99 | 1014.9 |
| 20260508055356 | 55 | 182 | 0.0 | 0.0 | 0.00 | 1.74 | 0.00 | 99 | 1014.8 |
| 20260508054856 | 55 | 182 | 0.0 | 0.0 | 0.00 | 1.74 | 0.00 | 99 | 1015.0 |
| 20260508054355 | 55 | 182 | 0.0 | 0.0 | 0.00 | 1.75 | 0.00 | 99 | 1015.0 |
| 20260508053855 | 55 | 181 | 0.0 | 0.0 | 0.00 | 1.75 | 0.00 | 99 | 1014.9 |
| 20260508053355 | 55 | 181 | 0.0 | 0.0 | 0.00 | 1.75 | 0.00 | 99 | 1014.8 |
| 20260508052855 | 55 | 182 | 0.0 | 0.0 | 0.00 | 1.75 | 0.00 | 99 | 1014.8 |
| 20260508052355 | 55 | 181 | 0.0 | 0.0 | 0.00 | 1.76 | 0.00 | 99 | 1014.8 |
| 20260508051856 | 55 | 181 | 0.0 | 0.0 | 0.00 | 1.78 | 0.00 | 99 | 1014.8 |
| 20260508051629 | 56 | 181 | 0.0 | 0.0 | 0.00 | 1.78 | 0.00 | 99 | 1014.8 |
| 20260508050855 | 56 | 181 | 0.0 | 0.0 | 0.00 | 1.78 | 0.00 | 99 | 1014.8 |
| 20260508050353 | 56 | 181 | 0.0 | 0.0 | 0.00 | 1.78 | 0.00 | 99 | 1014.6 |
| 20260508045853 | 56 | 181 | 0.0 | 0.0 | 0.00 | 1.78 | 0.00 | 99 | 1014.8 |
| 20260508045623 | 56 | 182 | 0.0 | 0.0 | 0.00 | 1.78 | 0.00 | 99 | 1014.6 |
| 20260508044851 | 56 | 182 | 0.0 | 0.0 | 0.00 | 1.78 | 0.00 | 99 | 1014.6 |
| 20260508044351 | 56 | 181 | 0.0 | 0.0 | 0.00 | 1.78 | 0.00 | 99 | 1014.5 |
| 20260508043849 | 56 | 181 | 0.0 | 0.0 | 0.00 | 1.78 | 0.00 | 99 | 1014.5 |
| 20260508043350 | 56 | 181 | 0.0 | 0.0 | 0.00 | 1.78 | 0.00 | 99 | 1014.4 |
| 20260508042849 | 56 | 181 | 0.0 | 0.0 | 0.00 | 1.78 | 0.00 | 99 | 1014.5 |
| 20260508042349 | 56 | 181 | 0.0 | 0.0 | 0.00 | 1.78 | 0.00 | 99 | 1014.6 |
| 20260508042119 | 56 | 182 | 0.0 | 0.0 | 0.00 | 1.78 | 0.00 | 99 | 1014.6 |
| 20260508041620 | 57 | 181 | 0.0 | 0.0 | 0.00 | 1.78 | 0.00 | 99 | 1014.4 |
| 20260508040850 | 57 | 182 | 0.0 | 0.0 | 0.00 | 1.78 | 0.00 | 99 | 1014.3 |
| 20260508040350 | 57 | 181 | 0.0 | 0.0 | 0.00 | 1.78 | 0.00 | 99 | 1014.4 |
| 20260508035849 | 57 | 181 | 0.0 | 0.0 | 0.00 | 1.78 | 1.78 | 99 | 1014.4 |
| 20260508035620 | 57 | 181 | 0.0 | 0.0 | 0.00 | 1.78 | 1.78 | 99 | 1014.4 |
| 20260508034847 | 57 | 181 | 0.0 | 0.0 | 0.00 | 1.78 | 1.78 | 99 | 1014.5 |
| 20260508034347 | 56 | 181 | 0.0 | 0.0 | 0.00 | 1.78 | 1.78 | 99 | 1014.5 |
| 20260508034118 | 56 | 182 | 0.0 | 0.0 | 0.00 | 1.78 | 1.78 | 99 | 1014.2 |
| 20260508033347 | 56 | 181 | 0.0 | 0.0 | 0.00 | 1.78 | 1.78 | 99 | 1014.3 |
| 20260508032847 | 57 | 181 | 0.0 | 0.0 | 0.00 | 1.78 | 1.78 | 99 | 1014.3 |
| 20260508032618 | 57 | 181 | 0.0 | 0.0 | 0.00 | 1.78 | 1.78 | 99 | 1014.4 |
| 20260508032118 | 57 | 181 | 0.0 | 0.0 | 0.00 | 1.78 | 1.78 | 99 | 1014.4 |
| 20260508031347 | 57 | 181 | 0.0 | 0.0 | 0.00 | 1.78 | 1.78 | 99 | 1014.4 |
| 20260508030847 | 57 | 181 | 0.0 | 0.0 | 0.00 | 1.79 | 1.78 | 99 | 1014.3 |
| 20260508030346 | 57 | 182 | 0.0 | 0.0 | 0.00 | 1.79 | 1.78 | 99 | 1014.2 |
| 20260508025849 | 57 | 181 | 0.0 | 0.0 | 0.00 | 1.80 | 1.78 | 98 | 1014.2 |
| 20260508025845 | 57 | 182 | 0.0 | 0.0 | 0.00 | 1.80 | 1.78 | 98 | 1014.1 |
| 20260508024844 | 57 | 181 | 0.0 | 0.0 | 0.00 | 1.80 | 1.78 | 98 | 1014.1 |
| 20260508024617 | 57 | 181 | 0.0 | 0.0 | 0.00 | 1.82 | 1.78 | 98 | 1014.2 |
| 20260508023845 | 57 | 181 | 0.0 | 0.0 | 0.00 | 1.84 | 1.78 | 98 | 1014.0 |
| 20260508023345 | 58 | 181 | 0.0 | 1.7 | 0.00 | 1.87 | 1.78 | 98 | 1013.9 |
| 20260508023116 | 58 | 181 | 0.0 | 1.7 | 0.00 | 1.90 | 1.78 | 98 | 1013.9 |
| 20260508022345 | 58 | 181 | 0.0 | 0.9 | 0.00 | 1.92 | 1.78 | 98 | 1013.8 |
| 20260508021845 | 58 | 182 | 0.0 | 0.9 | 0.00 | 1.93 | 1.78 | 98 | 1013.7 |
| 20260508021617 | 58 | 181 | 0.0 | 0.0 | 0.00 | 1.94 | 1.78 | 98 | 1013.6 |
| 20260508020845 | 58 | 181 | 0.0 | 0.0 | 0.00 | 1.95 | 1.78 | 98 | 1013.7 |
| 20260508020346 | 58 | 181 | 0.0 | 0.0 | 0.00 | 1.97 | 1.78 | 98 | 1013.4 |
| 20260508015845 | 58 | 181 | 0.0 | 0.0 | 0.00 | 1.98 | 1.78 | 98 | 1013.4 |
| 20260508015617 | 58 | 181 | 0.0 | 0.0 | 0.00 | 1.98 | 1.78 | 98 | 1013.3 |
| 20260508014845 | 59 | 182 | 0.0 | 0.0 | 0.00 | 1.98 | 1.78 | 98 | 1013.1 |
| 20260508014345 | 58 | 181 | 0.0 | 0.0 | 0.00 | 1.98 | 1.78 | 98 | 1013.1 |
| 20260508013844 | 59 | 181 | 0.0 | 0.0 | 0.00 | 1.98 | 1.78 | 98 | 1012.9 |
| 20260508013616 | 59 | 182 | 0.0 | 0.9 | 0.00 | 1.98 | 1.78 | 98 | 1012.8 |
| 20260508012845 | 59 | 181 | 0.0 | 0.9 | 0.00 | 1.98 | 1.78 | 98 | 1012.9 |
| 20260508012616 | 59 | 181 | 0.0 | 0.0 | 0.00 | 1.98 | 1.78 | 98 | 1012.9 |
| 20260508011844 | 59 | 181 | 0.0 | 0.0 | 0.00 | 1.98 | 1.78 | 98 | 1012.8 |
| 20260508011346 | 59 | 182 | 0.0 | 1.7 | 0.00 | 1.98 | 1.78 | 98 | 1012.7 |
| 20260508010845 | 59 | 181 | 0.0 | 1.7 | 0.00 | 1.98 | 1.78 | 98 | 1012.4 |
| 20260508010617 | 59 | 182 | 0.9 | 3.5 | 0.00 | 1.98 | 1.78 | 98 | 1012.5 |
| 20260508005845 | 59 | 181 | 0.9 | 3.5 | 0.02 | 1.98 | 1.78 | 98 | 1012.4 |
| 20260508005346 | 59 | 181 | 0.0 | 2.6 | 0.03 | 2.01 | 1.78 | 98 | 1012.5 |
| 20260508004844 | 59 | 181 | 0.0 | 2.6 | 0.09 | 2.14 | 1.78 | 98 | 1012.3 |
| 20260508004346 | 59 | 182 | 0.0 | 1.7 | 0.21 | 2.18 | 1.78 | 98 | 1012.2 |
| 20260508003844 | 59 | 182 | 0.0 | 2.6 | 0.30 | 2.18 | 1.78 | 98 | 1011.9 |
| 20260508003345 | 59 | 181 | 0.0 | 2.6 | 0.48 | 2.18 | 1.78 | 97 | 1011.9 |
| 20260508002845 | 60 | 181 | 0.0 | 0.0 | 0.56 | 2.18 | 1.78 | 98 | 1011.8 |
| 20260508002344 | 60 | 181 | 0.0 | 0.9 | 0.61 | 2.18 | 1.78 | 97 | 1011.7 |
| 20260508001845 | 60 | 181 | 0.0 | 3.5 | 0.63 | 2.18 | 1.78 | 97 | 1011.6 |
| 20260508001344 | 60 | 181 | 0.0 | 3.5 | 0.63 | 2.18 | 1.78 | 97 | 1011.6 |
| 20260508000843 | 60 | 181 | 0.0 | 0.0 | 0.63 | 2.18 | 1.78 | 97 | 1011.4 |
| 20260508000342 | 60 | 182 | 0.0 | 0.9 | 0.63 | 2.18 | 1.78 | 97 | 1011.2 |
| 20260507235842 | 60 | 182 | 0.0 | 0.9 | 0.61 | 2.16 | 1.77 | 96 | 1011.0 |
| 20260507235343 | 60 | 181 | 0.9 | 2.6 | 0.60 | 2.15 | 1.75 | 96 | 1011.2 |
| 20260507234843 | 60 | 181 | 0.9 | 2.6 | 0.54 | 2.09 | 1.70 | 96 | 1010.9 |
| 20260507234343 | 60 | 181 | 0.9 | 6.1 | 0.42 | 1.97 | 1.57 | 95 | 1010.3 |
| 20260507233843 | 60 | 181 | 0.9 | 6.1 | 0.34 | 1.88 | 1.50 | 94 | 1010.7 |
| 20260507233343 | 61 | 181 | 0.9 | 3.5 | 0.11 | 1.65 | 1.28 | 94 | 1009.7 |
| 20260507232843 | 61 | 181 | 0.9 | 7.8 | 0.08 | 1.62 | 1.22 | 93 | 1009.2 |
| 20260507232343 | 62 | 181 | 1.7 | 9.6 | 0.11 | 1.57 | 1.18 | 92 | 1009.5 |
| 20260507231842 | 62 | 181 | 2.6 | 9.6 | 0.15 | 1.55 | 1.15 | 92 | 1009.2 |
| 20260507231343 | 63 | 182 | 1.7 | 7.0 | 0.16 | 1.55 | 1.15 | 91 | 1009.7 |
| 20260507230842 | 64 | 182 | 0.9 | 5.2 | 0.17 | 1.55 | 1.15 | 91 | 1008.6 |
| 20260507230342 | 65 | 182 | 0.9 | 5.2 | 0.17 | 1.55 | 1.15 | 91 | 1009.2 |
| 20260507230113 | 65 | 182 | 1.7 | 5.2 | 0.17 | 1.55 | 1.15 | 90 | 1009.1 |
| 20260507225343 | 66 | 182 | 2.6 | 9.6 | 0.17 | 1.55 | 1.15 | 90 | 1008.9 |
| 20260507224842 | 68 | 182 | 1.7 | 9.6 | 0.17 | 1.55 | 1.15 | 88 | 1008.7 |
| 20260507224342 | 70 | 176 | 0.9 | 4.3 | 0.17 | 1.55 | 1.15 | 93 | 1008.4 |
| 20260507224115 | 71 | 176 | 0.0 | 0.9 | 0.16 | 1.54 | 1.14 | 92 | 1008.1 |
| 20260507223343 | 71 | 176 | 0.0 | 0.9 | 0.16 | 1.54 | 1.14 | 91 | 1008.1 |
| 20260507222842 | 72 | 176 | 0.0 | 4.3 | 0.16 | 1.54 | 1.14 | 89 | 1007.9 |
| 20260507222615 | 73 | 176 | 0.0 | 4.3 | 0.08 | 1.46 | 1.07 | 86 | 1008.1 |
| 20260507221842 | 75 | 176 | 0.0 | 1.7 | 0.02 | 1.40 | 1.00 | 84 | 1007.9 |
| 20260507221342 | 76 | 175 | 0.0 | 3.5 | 0.01 | 1.39 | 0.99 | 79 | 1007.8 |
| 20260507220843 | 76 | 175 | 0.9 | 3.5 | 0.00 | 1.38 | 0.98 | 76 | 1007.6 |
| 20260507220342 | 77 | 175 | 0.0 | 2.6 | 0.00 | 1.38 | 0.98 | 75 | 1007.5 |
| 20260507215843 | 77 | 175 | 0.0 | 2.6 | 0.00 | 1.38 | 0.98 | 74 | 1007.5 |
| 20260507215342 | 78 | 175 | 0.9 | 2.6 | 0.00 | 1.38 | 0.98 | 73 | 1007.6 |
| 20260507214842 | 78 | 175 | 0.9 | 4.3 | 0.00 | 1.38 | 0.98 | 72 | 1007.4 |
| 20260507214342 | 79 | 175 | 0.9 | 4.3 | 0.00 | 1.38 | 0.98 | 71 | 1007.4 |
| 20260507213843 | 79 | 176 | 0.9 | 5.2 | 0.00 | 1.38 | 0.98 | 71 | 1007.4 |
| 20260507213340 | 79 | 175 | 0.9 | 5.2 | 0.00 | 1.38 | 0.98 | 72 | 1007.3 |
| 20260507212840 | 79 | 175 | 0.9 | 4.3 | 0.00 | 1.38 | 0.98 | 72 | 1007.4 |
| 20260507212338 | 79 | 175 | 1.7 | 4.3 | 0.00 | 1.38 | 0.98 | 72 | 1007.3 |
| 20260507211839 | 79 | 175 | 0.9 | 5.2 | 0.00 | 1.38 | 0.98 | 73 | 1007.4 |
| 20260507211337 | 79 | 175 | 0.9 | 5.2 | 0.00 | 1.38 | 0.98 | 72 | 1007.5 |
| 20260507210836 | 79 | 175 | 0.0 | 2.6 | 0.00 | 1.38 | 0.98 | 71 | 1007.7 |
| 20260507210336 | 79 | 176 | 0.9 | 6.1 | 0.00 | 1.38 | 0.98 | 70 | 1007.7 |
| 20260507205836 | 79 | 176 | 0.9 | 6.1 | 0.00 | 1.38 | 0.98 | 71 | 1007.6 |
| 20260507205336 | 80 | 176 | 0.9 | 4.3 | 0.00 | 1.38 | 0.98 | 70 | 1007.6 |
| 20260507205106 | 80 | 176 | 0.9 | 4.3 | 0.00 | 1.38 | 0.98 | 70 | 1007.2 |
| 20260507204338 | 81 | 175 | 0.9 | 3.5 | 0.00 | 1.38 | 0.98 | 69 | 1007.5 |
| 20260507204334 | 81 | 176 | 0.9 | 3.5 | 0.00 | 1.38 | 0.98 | 70 | 1007.2 |
| 20260507203603 | 80 | 175 | 0.9 | 3.5 | 0.00 | 1.38 | 0.98 | 68 | 1007.5 |
| 20260507202833 | 81 | 175 | 0.9 | 3.5 | 0.00 | 1.38 | 0.98 | 67 | 1007.6 |
| 20260507202604 | 80 | 176 | 0.9 | 3.5 | 0.00 | 1.38 | 0.98 | 68 | 1007.6 |
| 20260507201832 | 80 | 175 | 1.7 | 5.2 | 0.00 | 1.38 | 0.98 | 68 | 1007.7 |
| 20260507201332 | 80 | 176 | 1.7 | 5.2 | 0.00 | 1.38 | 0.98 | 70 | 1007.7 |
| 20260507200832 | 80 | 176 | 0.9 | 3.5 | 0.00 | 1.38 | 0.98 | 69 | 1007.7 |
| 20260507200332 | 79 | 175 | 0.9 | 3.5 | 0.00 | 1.38 | 0.98 | 70 | 1007.8 |
| 20260507195832 | 79 | 175 | 0.9 | 4.3 | 0.00 | 1.38 | 0.98 | 70 | 1007.9 |
| 20260507195333 | 80 | 175 | 0.9 | 4.3 | 0.00 | 1.38 | 0.98 | 68 | 1008.0 |
| 20260507194832 | 80 | 176 | 0.9 | 3.5 | 0.00 | 1.38 | 0.98 | 71 | 1008.0 |
| 20260507194601 | 79 | 175 | 0.9 | 3.5 | 0.00 | 1.38 | 0.98 | 70 | 1008.0 |
| 20260507193830 | 80 | 176 | 1.7 | 7.0 | 0.00 | 1.38 | 0.98 | 71 | 1008.4 |
| 20260507193330 | 79 | 175 | 1.7 | 7.0 | 0.00 | 1.38 | 0.98 | 73 | 1008.6 |
| 20260507193101 | 78 | 176 | 1.7 | 7.8 | 0.00 | 1.38 | 0.98 | 73 | 1008.5 |
| 20260507192330 | 78 | 175 | 0.9 | 7.8 | 0.00 | 1.38 | 0.98 | 73 | 1008.6 |
| 20260507191832 | 78 | 175 | 1.7 | 10.4 | 0.00 | 1.38 | 0.98 | 72 | 1008.6 |
| 20260507191330 | 78 | 175 | 2.6 | 10.4 | 0.00 | 1.38 | 0.98 | 73 | 1008.6 |
| 20260507190830 | 77 | 176 | 2.6 | 9.6 | 0.00 | 1.38 | 0.98 | 74 | 1008.8 |
| 20260507190330 | 77 | 176 | 2.6 | 9.6 | 0.00 | 1.38 | 0.98 | 76 | 1008.8 |
| 20260507185831 | 77 | 180 | 1.7 | 8.7 | 0.00 | 1.38 | 0.98 | 75 | 1008.8 |
| 20260507185601 | 78 | 180 | 0.9 | 7.0 | 0.00 | 1.38 | 0.98 | 74 | 1008.7 |
| 20260507184830 | 78 | 180 | 0.9 | 4.3 | 0.00 | 1.38 | 0.98 | 75 | 1008.7 |
| 20260507184330 | 78 | 180 | 0.9 | 4.3 | 0.00 | 1.38 | 0.98 | 76 | 1008.7 |
| 20260507183830 | 78 | 180 | 0.9 | 3.5 | 0.00 | 1.38 | 0.98 | 78 | 1008.7 |
| 20260507183328 | 77 | 180 | 0.9 | 4.3 | 0.00 | 1.38 | 0.98 | 77 | 1008.7 |
| 20260507182828 | 76 | 180 | 0.9 | 4.3 | 0.00 | 1.38 | 0.98 | 80 | 1008.6 |
| 20260507182328 | 76 | 180 | 0.9 | 4.3 | 0.00 | 1.38 | 0.98 | 82 | 1008.7 |
| 20260507181828 | 74 | 180 | 0.9 | 5.2 | 0.00 | 1.38 | 0.98 | 85 | 1008.6 |
| 20260507181328 | 74 | 180 | 0.9 | 5.2 | 0.00 | 1.38 | 0.98 | 84 | 1008.6 |
| 20260507180828 | 75 | 180 | 0.9 | 4.3 | 0.00 | 1.38 | 0.98 | 83 | 1008.6 |
| 20260507180328 | 75 | 180 | 0.9 | 4.3 | 0.00 | 1.38 | 0.98 | 84 | 1008.7 |
| 20260507175328 | 75 | 180 | 0.9 | 5.2 | 0.00 | 1.38 | 0.98 | 87 | 1009.0 |
| 20260507174827 | 74 | 180 | 0.9 | 5.2 | 0.00 | 1.38 | 0.98 | 86 | 1008.8 |
| 20260507174326 | 74 | 180 | 0.9 | 3.5 | 0.00 | 1.38 | 0.98 | 87 | 1008.9 |
| 20260507174057 | 73 | 180 | 0.0 | 3.5 | 0.00 | 1.38 | 0.98 | 88 | 1009.1 |
| 20260507173556 | 72 | 180 | 0.0 | 1.7 | 0.00 | 1.38 | 0.98 | 91 | 1009.3 |
| 20260507172826 | 72 | 180 | 0.0 | 0.9 | 0.00 | 1.38 | 0.98 | 92 | 1009.4 |
| 20260507172326 | 72 | 180 | 0.0 | 1.7 | 0.00 | 1.38 | 0.98 | 91 | 1009.3 |
| 20260507171827 | 72 | 180 | 0.0 | 2.6 | 0.00 | 1.38 | 0.98 | 91 | 1009.2 |
| 20260507171326 | 72 | 180 | 0.0 | 2.6 | 0.00 | 1.38 | 0.98 | 91 | 1009.3 |
| 20260507170828 | 71 | 180 | 0.0 | 0.9 | 0.00 | 1.38 | 0.98 | 92 | 1009.3 |
| 20260507170824 | 72 | 180 | 0.0 | 0.9 | 0.00 | 1.38 | 0.98 | 92 | 1009.4 |
| 20260507165822 | 71 | 180 | 0.0 | 2.6 | 0.00 | 1.38 | 0.98 | 92 | 1009.3 |